,,,PA_Meas_PMT16A,,PR_Meas_QMR101_102,,RH_Meas_QMH101,,SR_Meas_QMS101,,TA_Meas_QMH101,,GenWind,,GenWind,
date,time,status,PA,status,PR,status,RH,status,SR,status,TA,status,DirAvg,status,SpdAvg,
2012-06-28, 09:15:04,VALID,1006.5,VALID,0,VALID,89.9445,VALID,118.922,VALID,25.0858,VALID,1,VALID,0,
2012-06-28, 09:16:04,VALID,1006.49,VALID,0,VALID,90.1734,VALID,121.53,VALID,25.1248,VALID,1,VALID,0,
2012-06-28, 09:17:04,VALID,1006.45,VALID,0,VALID,90.1505,VALID,124.301,VALID,25.1423,VALID,1,VALID,0,
2012-06-28, 09:18:04,VALID,1006.48,VALID,0,VALID,89.9903,VALID,126.991,VALID,25.1832,VALID,1,VALID,0,
2012-06-28, 09:19:04,VALID,1006.46,VALID,0,VALID,88.9451,VALID,129.844,VALID,25.1442,VALID,1,VALID,0,
2012-06-28, 09:20:04,VALID,1006.46,VALID,0,VALID,89.4639,VALID,132.452,VALID,25.1637,VALID,1,VALID,0,
2012-06-28, 09:21:04,VALID,1006.44,VALID,0,VALID,89.3189,VALID,135.142,VALID,25.1832,VALID,1,VALID,0,
2012-06-28, 09:22:04,VALID,1006.43,VALID,0,VALID,89.296,VALID,137.832,VALID,25.2027,VALID,1,VALID,0,
2012-06-28, 09:23:04,VALID,1006.42,VALID,0,VALID,89.2198,VALID,140.358,VALID,25.2027,VALID,1,VALID,0,
2012-06-28, 09:24:04,VALID,1006.41,VALID,0,VALID,88.9604,VALID,142.804,VALID,25.1813,VALID,1,VALID,0,
2012-06-28, 09:25:04,VALID,1006.41,VALID,0,VALID,89.2655,VALID,145.004,VALID,25.2027,VALID,1,VALID,0,
2012-06-28, 09:26:04,VALID,1006.39,VALID,0,VALID,89.7767,VALID,147.287,VALID,25.2611,VALID,1,VALID,0,
2012-06-28, 09:27:04,VALID,1006.37,VALID,0,VALID,89.5631,VALID,149.406,VALID,25.2806,VALID,1,VALID,0,
2012-06-28, 09:28:04,VALID,1006.36,VALID,0,VALID,89.0061,VALID,151.362,VALID,25.2806,VALID,1,VALID,0,
2012-06-28, 09:29:04,VALID,1006.38,VALID,0,VALID,89.2579,VALID,153.237,VALID,25.2806,VALID,1,VALID,0,
2012-06-28, 09:30:04,VALID,1006.34,VALID,0,VALID,88.7315,VALID,155.193,VALID,25.2806,VALID,115,VALID,0,
2012-06-28, 09:31:04,VALID,1006.33,VALID,0,VALID,89.5097,VALID,157.068,VALID,25.3195,VALID,115,VALID,0,
2012-06-28, 09:32:04,VALID,1006.34,VALID,0,VALID,88.6247,VALID,158.698,VALID,25.3409,VALID,115,VALID,0,
2012-06-28, 09:33:04,VALID,1006.32,VALID,0,VALID,88.6018,VALID,160.573,VALID,25.3,VALID,115,VALID,0,
2012-06-28, 09:34:04,VALID,1006.32,VALID,0,VALID,89.2426,VALID,162.284,VALID,25.3584,VALID,115,VALID,0,
2012-06-28, 09:35:04,VALID,1006.32,VALID,0,VALID,87.6406,VALID,163.833,VALID,25.3195,VALID,115,VALID,0,
2012-06-28, 09:36:04,VALID,1006.29,VALID,0,VALID,87.8466,VALID,165.219,VALID,25.3195,VALID,115,VALID,0,
2012-06-28, 09:37:04,VALID,1006.32,VALID,0,VALID,87.7855,VALID,166.523,VALID,25.339,VALID,116,VALID,0,
2012-06-28, 09:38:04,VALID,1006.29,VALID,0,VALID,88.8231,VALID,167.827,VALID,25.4188,VALID,116,VALID,0,
2012-06-28, 09:39:04,VALID,1006.27,VALID,0,VALID,87.7703,VALID,169.213,VALID,25.3974,VALID,138,VALID,0,
2012-06-28, 09:40:04,VALID,1006.24,VALID,0,VALID,88.3043,VALID,170.517,VALID,25.3974,VALID,138,VALID,0,
2012-06-28, 09:41:04,VALID,1006.28,VALID,0,VALID,86.4352,VALID,171.984,VALID,25.3974,VALID,138,VALID,0,
2012-06-28, 09:42:04,VALID,1006.25,VALID,0,VALID,86.2064,VALID,173.451,VALID,25.3974,VALID,138,VALID,0,
2012-06-28, 09:43:04,VALID,1006.24,VALID,0,VALID,85.5121,VALID,174.837,VALID,25.4169,VALID,186,VALID,0.711719,
2012-06-28, 09:44:04,VALID,1006.22,VALID,0,VALID,86.5268,VALID,176.385,VALID,25.4558,VALID,183,VALID,0.578125,
2012-06-28, 09:45:04,VALID,1006.22,VALID,0,VALID,87.1066,VALID,177.852,VALID,25.4558,VALID,183,VALID,0.503516,
2012-06-28, 09:46:04,VALID,1006.21,VALID,0,VALID,87.3736,VALID,179.32,VALID,25.4948,VALID,183,VALID,0.391016,
2012-06-28, 09:47:04,VALID,1006.19,VALID,0,VALID,85.6037,VALID,180.705,VALID,25.4363,VALID,183,VALID,0.335547,
2012-06-28, 09:48:04,VALID,1006.19,VALID,0,VALID,85.6113,VALID,182.091,VALID,25.4772,VALID,183,VALID,0.160547,
2012-06-28, 09:49:04,VALID,1006.16,VALID,0,VALID,86.4428,VALID,183.64,VALID,25.4753,VALID,183,VALID,0.0078125,
2012-06-28, 09:50:04,VALID,1006.15,VALID,0,VALID,85.329,VALID,185.107,VALID,25.4948,VALID,183,VALID,0,
2012-06-28, 09:51:04,VALID,1006.12,VALID,0,VALID,86.2903,VALID,186.818,VALID,25.5337,VALID,183,VALID,0,
2012-06-28, 09:52:04,VALID,1006.12,VALID,0,VALID,86.0004,VALID,188.53,VALID,25.5337,VALID,183,VALID,0,
2012-06-28, 09:53:04,VALID,1006.05,VALID,0,VALID,85.5655,VALID,190.242,VALID,25.5532,VALID,183,VALID,0,
2012-06-28, 09:54:04,VALID,1006.08,VALID,0,VALID,86.6412,VALID,192.117,VALID,25.5921,VALID,183,VALID,0,
2012-06-28, 09:55:04,VALID,1006.05,VALID,0,VALID,87.3202,VALID,193.991,VALID,25.6116,VALID,183,VALID,0,
2012-06-28, 09:56:04,VALID,1006.08,VALID,0,VALID,87.9305,VALID,195.866,VALID,25.7304,VALID,183,VALID,0,
2012-06-28, 09:57:04,VALID,1006.04,VALID,0,VALID,85.9012,VALID,197.985,VALID,25.67,VALID,183,VALID,0.240234,
2012-06-28, 09:58:04,VALID,1006.01,VALID,0,VALID,85.4587,VALID,200.023,VALID,25.67,VALID,183,VALID,0.152734,
2012-06-28, 09:59:04,VALID,1006.02,VALID,0,VALID,86.6412,VALID,202.224,VALID,25.7285,VALID,183,VALID,0.226172,
2012-06-28, 10:00:04,VALID,1005.98,VALID,0,VALID,86.0843,VALID,204.506,VALID,25.7869,VALID,183,VALID,0.144531,
2012-06-28, 10:01:04,VALID,1005.99,VALID,0,VALID,85.4358,VALID,206.87,VALID,25.8064,VALID,183,VALID,0.00351562,
2012-06-28, 10:02:04,VALID,1005.97,VALID,0,VALID,85.6723,VALID,209.233,VALID,25.8259,VALID,183,VALID,0.0753906,
2012-06-28, 10:03:04,VALID,1005.97,VALID,0,VALID,86.3818,VALID,211.76,VALID,25.8823,VALID,243,VALID,0.114063,
2012-06-28, 10:04:04,VALID,1005.95,VALID,0,VALID,86.7175,VALID,214.124,VALID,25.9622,VALID,243,VALID,0.0078125,
2012-06-28, 10:05:04,VALID,1005.94,VALID,0,VALID,86.6641,VALID,216.488,VALID,26.0012,VALID,243,VALID,0.0761719,
2012-06-28, 10:06:04,VALID,1005.94,VALID,0,VALID,85.0468,VALID,218.688,VALID,25.9992,VALID,243,VALID,0.0371094,
2012-06-28, 10:07:04,VALID,1005.93,VALID,0,VALID,84.528,VALID,220.889,VALID,26.0012,VALID,242,VALID,0.462891,
2012-06-28, 10:08:04,VALID,1005.92,VALID,0,VALID,84.0474,VALID,222.764,VALID,25.9622,VALID,197,VALID,0.564453,
2012-06-28, 10:09:04,VALID,1005.91,VALID,0,VALID,84.589,VALID,224.639,VALID,25.9232,VALID,187,VALID,0.411328,
2012-06-28, 10:10:04,VALID,1005.9,VALID,0,VALID,85.4053,VALID,226.432,VALID,25.9232,VALID,187,VALID,0.188672,
2012-06-28, 10:11:04,VALID,1005.91,VALID,0,VALID,86.069,VALID,227.98,VALID,25.9408,VALID,187,VALID,0.475,
2012-06-28, 10:12:04,VALID,1005.87,VALID,0,VALID,84.9323,VALID,229.122,VALID,25.9213,VALID,195,VALID,0.7,
2012-06-28, 10:13:04,VALID,1005.86,VALID,0,VALID,84.1008,VALID,229.937,VALID,25.9232,VALID,188,VALID,0.771484,
2012-06-28, 10:14:04,VALID,1005.86,VALID,0,VALID,84.3373,VALID,230.67,VALID,25.9427,VALID,174,VALID,0.520312,
2012-06-28, 10:15:04,VALID,1005.87,VALID,0,VALID,85.4053,VALID,231.485,VALID,25.9622,VALID,174,VALID,0.223047,
2012-06-28, 10:16:04,VALID,1005.87,VALID,0,VALID,84.0397,VALID,232.137,VALID,26.0012,VALID,177,VALID,0.464063,
2012-06-28, 10:17:04,VALID,1005.87,VALID,0,VALID,83.7041,VALID,233.034,VALID,25.9817,VALID,179,VALID,0.466406,
2012-06-28, 10:18:04,VALID,1005.86,VALID,0,VALID,83.6736,VALID,234.175,VALID,26.0012,VALID,179,VALID,0.564844,
2012-06-28, 10:19:04,VALID,1005.88,VALID,0,VALID,83.1243,VALID,235.561,VALID,26.0401,VALID,207,VALID,0.822656,
2012-06-28, 10:20:04,VALID,1005.87,VALID,0,VALID,84.1542,VALID,237.191,VALID,26.0596,VALID,212,VALID,0.469922,
2012-06-28, 10:21:04,VALID,1005.84,VALID,0,VALID,82.7657,VALID,238.821,VALID,26.0596,VALID,218,VALID,0.305469,
2012-06-28, 10:22:04,VALID,1005.83,VALID,0,VALID,83.4294,VALID,240.451,VALID,26.0791,VALID,218,VALID,0.321484,
2012-06-28, 10:23:04,VALID,1005.82,VALID,0,VALID,84.5356,VALID,242.326,VALID,26.1375,VALID,218,VALID,0.329688,
2012-06-28, 10:24:04,VALID,1005.79,VALID,0,VALID,82.8344,VALID,244.771,VALID,26.1765,VALID,195,VALID,0.805078,
2012-06-28, 10:25:04,VALID,1005.76,VALID,0,VALID,82.8878,VALID,248.195,VALID,26.1765,VALID,212,VALID,0.589063,
2012-06-28, 10:26:04,VALID,1005.74,VALID,0,VALID,82.6284,VALID,251.7,VALID,26.1979,VALID,218,VALID,0.425391,
2012-06-28, 10:27:04,VALID,1005.72,VALID,0,VALID,82.5063,VALID,255.286,VALID,26.1959,VALID,209,VALID,0.349219,
2012-06-28, 10:28:04,VALID,1005.68,VALID,0,VALID,80.8432,VALID,259.035,VALID,26.2349,VALID,199,VALID,1.04258,
2012-06-28, 10:29:04,VALID,1005.68,VALID,0,VALID,80.6296,VALID,262.703,VALID,26.2154,VALID,211,VALID,0.476953,
2012-06-28, 10:30:04,VALID,1005.69,VALID,0,VALID,81.9342,VALID,266.29,VALID,26.2759,VALID,203,VALID,0.315234,
2012-06-28, 10:31:04,VALID,1005.7,VALID,0,VALID,81.0492,VALID,269.632,VALID,26.2933,VALID,203,VALID,0.124609,
2012-06-28, 10:32:04,VALID,1005.69,VALID,0,VALID,82.308,VALID,273.136,VALID,26.4102,VALID,203,VALID,0.0148437,
2012-06-28, 10:33:04,VALID,1005.68,VALID,0,VALID,80.3703,VALID,277.212,VALID,26.5076,VALID,203,VALID,0.316797,
2012-06-28, 10:34:04,VALID,1005.7,VALID,0,VALID,81.6214,VALID,282.021,VALID,26.646,VALID,203,VALID,0.309375,
2012-06-28, 10:35:04,VALID,1005.67,VALID,0,VALID,79.6226,VALID,286.83,VALID,26.7024,VALID,203,VALID,0.243359,
2012-06-28, 10:36:04,VALID,1005.67,VALID,0,VALID,79.2336,VALID,290.579,VALID,26.7609,VALID,203,VALID,0.323047,
2012-06-28, 10:37:04,VALID,1005.68,VALID,0,VALID,80.2787,VALID,294.41,VALID,26.8193,VALID,204,VALID,0.35,
2012-06-28, 10:38:04,VALID,1005.67,VALID,0,VALID,82.102,VALID,298.16,VALID,26.8973,VALID,193,VALID,0.45625,
2012-06-28, 10:39:04,VALID,1005.66,VALID,0,VALID,79.9278,VALID,301.664,VALID,26.8583,VALID,110,VALID,0.797266,
2012-06-28, 10:40:04,VALID,1005.64,VALID,0,VALID,78.6309,VALID,306.8,VALID,26.7998,VALID,125,VALID,0.7875,
2012-06-28, 10:41:04,VALID,1005.63,VALID,0,VALID,78.6995,VALID,310.957,VALID,26.7239,VALID,131,VALID,0.486328,
2012-06-28, 10:42:04,VALID,1005.61,VALID,0,VALID,80.7975,VALID,315.847,VALID,26.7824,VALID,131,VALID,0.103516,
2012-06-28, 10:43:04,VALID,1005.6,VALID,0,VALID,80.2863,VALID,319.922,VALID,26.8583,VALID,130,VALID,0.192578,
2012-06-28, 10:44:04,VALID,1005.59,VALID,0,VALID,80.7975,VALID,324.405,VALID,26.9752,VALID,131,VALID,0.401563,
2012-06-28, 10:45:04,VALID,1005.58,VALID,0,VALID,78.7987,VALID,328.155,VALID,27.0726,VALID,194,VALID,0.255859,
2012-06-28, 10:46:04,VALID,1005.57,VALID,0,VALID,80.6602,VALID,330.682,VALID,27.1895,VALID,196,VALID,0.266797,
2012-06-28, 10:47:04,VALID,1005.54,VALID,0,VALID,78.9513,VALID,332.964,VALID,27.248,VALID,191,VALID,0.241797,
2012-06-28, 10:48:04,VALID,1005.55,VALID,0,VALID,76.9678,VALID,334.92,VALID,27.25,VALID,163,VALID,0.545703,
2012-06-28, 10:49:04,VALID,1005.51,VALID,0,VALID,76.3651,VALID,336.387,VALID,27.17,VALID,177,VALID,1.29453,
2012-06-28, 10:50:04,VALID,1005.5,VALID,0,VALID,77.4408,VALID,341.196,VALID,27.0162,VALID,175,VALID,0.610547,
2012-06-28, 10:51:04,VALID,1005.48,VALID,0,VALID,78.6309,VALID,354.564,VALID,26.9772,VALID,182,VALID,1.09414,
2012-06-28, 10:52:04,VALID,1005.46,VALID,0,VALID,79.1878,VALID,366.627,VALID,26.9362,VALID,198,VALID,0.889453,
2012-06-28, 10:53:04,VALID,1005.45,VALID,0,VALID,78.1884,VALID,378.201,VALID,26.8973,VALID,193,VALID,0.821094,
2012-06-28, 10:54:04,VALID,1005.4,VALID,0,VALID,79.4319,VALID,389.042,VALID,26.9188,VALID,202,VALID,0.550391,
2012-06-28, 10:55:04,VALID,1005.4,VALID,0,VALID,80.2863,VALID,405.914,VALID,26.9967,VALID,201,VALID,0.398438,
2012-06-28, 10:56:04,VALID,1005.37,VALID,0,VALID,77.8909,VALID,421.483,VALID,27.0357,VALID,201,VALID,0.422656,
2012-06-28, 10:57:04,VALID,1005.35,VALID,0,VALID,78.2647,VALID,440.148,VALID,27.1721,VALID,201,VALID,0.287891,
2012-06-28, 10:58:04,VALID,1005.32,VALID,0,VALID,77.1432,VALID,460.688,VALID,27.3085,VALID,204,VALID,0.650781,
2012-06-28, 10:59:04,VALID,1005.29,VALID,0,VALID,78.0968,VALID,488.32,VALID,27.3475,VALID,209,VALID,1.06719,
2012-06-28, 11:00:04,VALID,1005.3,VALID,0,VALID,75.5641,VALID,512.61,VALID,27.2869,VALID,206,VALID,1.28906,
2012-06-28, 11:01:04,VALID,1005.29,VALID,0,VALID,75.8311,VALID,475.36,VALID,27.2069,VALID,198,VALID,1.12383,
2012-06-28, 11:02:04,VALID,1005.29,VALID,0,VALID,77.662,VALID,531.927,VALID,27.209,VALID,211,VALID,0.539844,
2012-06-28, 11:03:04,VALID,1005.27,VALID,0,VALID,78.1655,VALID,542.279,VALID,27.2285,VALID,205,VALID,1.04727,
2012-06-28, 11:04:04,VALID,1005.25,VALID,0,VALID,80.3703,VALID,550.674,VALID,27.3064,VALID,232,VALID,0.692187,
2012-06-28, 11:05:04,VALID,1005.25,VALID,0,VALID,76.9449,VALID,571.051,VALID,27.3649,VALID,212,VALID,0.355469,
2012-06-28, 11:06:04,VALID,1005.24,VALID,0,VALID,78.9894,VALID,586.049,VALID,27.4233,VALID,183,VALID,1.4375,
2012-06-28, 11:07:04,VALID,1005.25,VALID,0,VALID,76.2659,VALID,603.981,VALID,27.3628,VALID,175,VALID,0.919922,
2012-06-28, 11:08:04,VALID,1005.23,VALID,0,VALID,75.8921,VALID,631.368,VALID,27.3454,VALID,189,VALID,1.14375,
2012-06-28, 11:09:04,VALID,1005.23,VALID,0,VALID,76.861,VALID,658.103,VALID,27.3649,VALID,229,VALID,0.988281,
2012-06-28, 11:10:04,VALID,1005.21,VALID,0,VALID,80.4999,VALID,672.122,VALID,27.5208,VALID,246,VALID,0.697656,
2012-06-28, 11:11:04,VALID,1005.2,VALID,0,VALID,79.1115,VALID,694.782,VALID,27.7546,VALID,215,VALID,0.695313,
2012-06-28, 11:12:04,VALID,1005.18,VALID,0,VALID,75.9074,VALID,720.865,VALID,27.8326,VALID,248,VALID,1.02109,
2012-06-28, 11:13:04,VALID,1005.15,VALID,0,VALID,74.6486,VALID,729.097,VALID,27.969,VALID,210,VALID,0.964453,
2012-06-28, 11:14:04,VALID,1005.14,VALID,0,VALID,74.0535,VALID,744.91,VALID,28.0859,VALID,241,VALID,0.932813,
2012-06-28, 11:15:04,VALID,1005.12,VALID,0,VALID,74.9919,VALID,751.594,VALID,28.3198,VALID,282,VALID,0.496094,
2012-06-28, 11:16:04,VALID,1005.11,VALID,0,VALID,72.5964,VALID,756.647,VALID,28.5754,VALID,204,VALID,1.40508,
2012-06-28, 11:17:04,VALID,1005.12,VALID,0,VALID,70.6816,VALID,766.591,VALID,28.4368,VALID,180,VALID,1.86836,
2012-06-28, 11:18:04,VALID,1005.08,VALID,0,VALID,71.742,VALID,777.188,VALID,28.244,VALID,182,VALID,1.40742,
2012-06-28, 11:19:04,VALID,1005.03,VALID,0,VALID,72.7261,VALID,779.877,VALID,28.1855,VALID,147,VALID,1.22148,
2012-06-28, 11:20:04,VALID,1005.01,VALID,0,VALID,74.0841,VALID,789.169,VALID,28.0686,VALID,163,VALID,0.576953,
2012-06-28, 11:21:04,VALID,1005,VALID,0,VALID,73.2296,VALID,780.04,VALID,28.1271,VALID,162,VALID,0.2125,
2012-06-28, 11:22:04,VALID,1004.94,VALID,0,VALID,73.4814,VALID,694.945,VALID,28.3025,VALID,228,VALID,1.10664,
2012-06-28, 11:23:04,VALID,1004.93,VALID,0,VALID,71.3605,VALID,674.731,VALID,28.4389,VALID,204,VALID,1.65039,
2012-06-28, 11:24:04,VALID,1004.92,VALID,0,VALID,70.323,VALID,631.042,VALID,28.3025,VALID,184,VALID,1.17891,
2012-06-28, 11:25:04,VALID,1004.88,VALID,0,VALID,69.6974,VALID,612.621,VALID,28.1855,VALID,205,VALID,1.1125,
2012-06-28, 11:26:04,VALID,1004.89,VALID,0,VALID,72.0243,VALID,579.284,VALID,28.1076,VALID,224,VALID,0.916016,
2012-06-28, 11:27:04,VALID,1004.85,VALID,0,VALID,73.0999,VALID,553.445,VALID,28.244,VALID,260,VALID,0.889844,
2012-06-28, 11:28:04,VALID,1004.8,VALID,0,VALID,71.4063,VALID,522.065,VALID,28.4584,VALID,275,VALID,0.682422,
2012-06-28, 11:29:04,VALID,1004.81,VALID,0,VALID,68.3624,VALID,513.262,VALID,28.675,VALID,259,VALID,0.565625,
2012-06-28, 11:30:04,VALID,1004.78,VALID,0,VALID,70.0865,VALID,521.739,VALID,28.4779,VALID,195,VALID,1.61758,
2012-06-28, 11:31:04,VALID,1004.81,VALID,0,VALID,71.7725,VALID,531.52,VALID,28.3241,VALID,204,VALID,1.49609,
2012-06-28, 11:32:04,VALID,1004.77,VALID,0,VALID,70.0484,VALID,542.523,VALID,28.2267,VALID,221,VALID,0.871875,
2012-06-28, 11:33:04,VALID,1004.76,VALID,0,VALID,71.2995,VALID,547.088,VALID,28.0881,VALID,234,VALID,0.862109,
2012-06-28, 11:34:05,VALID,1004.74,VALID,0,VALID,71.6733,VALID,545.539,VALID,28.2267,VALID,256,VALID,0.283203,
2012-06-28, 11:35:05,VALID,1004.73,VALID,0,VALID,72.4973,VALID,552.304,VALID,28.361,VALID,257,VALID,0.466797,
2012-06-28, 11:36:05,VALID,1004.71,VALID,0,VALID,70.6587,VALID,546.436,VALID,28.3826,VALID,229,VALID,1.89609,
2012-06-28, 11:37:05,VALID,1004.69,VALID,0,VALID,71.0859,VALID,554.098,VALID,28.205,VALID,187,VALID,1.69961,
2012-06-28, 11:38:05,VALID,1004.68,VALID,0,VALID,71.5742,VALID,551.571,VALID,28.0512,VALID,202,VALID,1.02461,
2012-06-28, 11:39:05,VALID,1004.69,VALID,0,VALID,72.7948,VALID,549.533,VALID,27.9711,VALID,195,VALID,1.26836,
2012-06-28, 11:40:05,VALID,1004.67,VALID,0,VALID,73.4966,VALID,549.207,VALID,27.9148,VALID,167,VALID,0.818359,
2012-06-28, 11:41:05,VALID,1004.64,VALID,0,VALID,70.9104,VALID,554.342,VALID,27.8737,VALID,178,VALID,1.66328,
2012-06-28, 11:42:05,VALID,1004.66,VALID,0,VALID,71.0859,VALID,578.55,VALID,27.8152,VALID,167,VALID,1.26563,
2012-06-28, 11:43:05,VALID,1004.61,VALID,0,VALID,75.4878,VALID,596.727,VALID,27.8173,VALID,171,VALID,1.18945,
2012-06-28, 11:44:05,VALID,1004.61,VALID,0,VALID,71.8412,VALID,626.315,VALID,27.8347,VALID,193,VALID,1.27109,
2012-06-28, 11:45:05,VALID,1004.58,VALID,0,VALID,71.4674,VALID,708.068,VALID,27.9127,VALID,131,VALID,1.10195,
2012-06-28, 11:46:05,VALID,1004.59,VALID,0,VALID,74.7935,VALID,767.162,VALID,27.9516,VALID,147,VALID,1.73125,
2012-06-28, 11:47:05,VALID,1004.6,VALID,0,VALID,71.4139,VALID,722.577,VALID,28.0101,VALID,176,VALID,1.0168,
2012-06-28, 11:48:05,VALID,1004.59,VALID,0,VALID,70.3917,VALID,740.835,VALID,27.9906,VALID,145,VALID,1.98359,
2012-06-28, 11:49:05,VALID,1004.57,VALID,0,VALID,71.3453,VALID,675.872,VALID,27.9321,VALID,174,VALID,1.37656,
2012-06-28, 11:50:05,VALID,1004.56,VALID,0,VALID,75.114,VALID,686.224,VALID,27.9516,VALID,186,VALID,1.39883,
2012-06-28, 11:51:05,VALID,1004.61,VALID,0,VALID,72.1005,VALID,712.306,VALID,28.0296,VALID,194,VALID,1.57305,
2012-06-28, 11:52:05,VALID,1004.58,VALID,0,VALID,71.2766,VALID,746.377,VALID,28.0491,VALID,177,VALID,0.621094,
2012-06-28, 11:53:05,VALID,1004.57,VALID,0,VALID,76.2049,VALID,742.057,VALID,28.1466,VALID,197,VALID,0.620703,
2012-06-28, 11:54:05,VALID,1004.56,VALID,0,VALID,72.3218,VALID,751.92,VALID,28.4,VALID,253,VALID,0.580859,
2012-06-28, 11:55:05,VALID,1004.54,VALID,0,VALID,69.7356,VALID,763.576,VALID,28.3805,VALID,183,VALID,2.32266,
2012-06-28, 11:56:05,VALID,1004.51,VALID,0,VALID,71.5131,VALID,779.144,VALID,28.2635,VALID,166,VALID,1.39805,
2012-06-28, 11:57:05,VALID,1004.49,VALID,0,VALID,69.7509,VALID,770.259,VALID,28.322,VALID,217,VALID,1.00664,
2012-06-28, 11:58:05,VALID,1004.46,VALID,0,VALID,69.5983,VALID,751.92,VALID,28.361,VALID,189,VALID,0.282813,
2012-06-28, 11:59:05,VALID,1004.46,VALID,0,VALID,69.4228,VALID,727.223,VALID,28.283,VALID,183,VALID,0.993359,
2012-06-28, 12:00:05,VALID,1004.44,VALID,0,VALID,71.0935,VALID,661.282,VALID,28.3631,VALID,248,VALID,0.753125,
2012-06-28, 12:01:05,VALID,1004.45,VALID,0,VALID,71.2461,VALID,657.695,VALID,28.5169,VALID,233,VALID,1.46563,
2012-06-28, 12:02:05,VALID,1004.44,VALID,0,VALID,75.3886,VALID,661.771,VALID,28.5754,VALID,267,VALID,0.832422,
2012-06-28, 12:03:05,VALID,1004.43,VALID,0,VALID,67.4546,VALID,679.947,VALID,28.7509,VALID,238,VALID,0.416406,
2012-06-28, 12:04:05,VALID,1004.43,VALID,0,VALID,68.9651,VALID,713.203,VALID,28.7119,VALID,200,VALID,0.730469,
2012-06-28, 12:05:05,VALID,1004.41,VALID,0,VALID,73.6111,VALID,723.229,VALID,28.7898,VALID,250,VALID,0.359375,
2012-06-28, 12:06:05,VALID,1004.39,VALID,0,VALID,68.0267,VALID,752.246,VALID,29.0238,VALID,257,VALID,0.842188,
2012-06-28, 12:07:05,VALID,1004.4,VALID,0,VALID,72.1158,VALID,746.459,VALID,29.1798,VALID,258,VALID,0.685156,
2012-06-28, 12:08:05,VALID,1004.39,VALID,0,VALID,70.7197,VALID,747.111,VALID,29.3358,VALID,244,VALID,0.438672,
2012-06-28, 12:09:05,VALID,1004.4,VALID,0,VALID,68.8659,VALID,768.14,VALID,29.2383,VALID,230,VALID,1.33945,
2012-06-28, 12:10:05,VALID,1004.35,VALID,0,VALID,68.9193,VALID,746.703,VALID,29.1993,VALID,294,VALID,0.852344,
2012-06-28, 12:11:05,VALID,1004.35,VALID,0,VALID,68.7667,VALID,687.446,VALID,29.1603,VALID,218,VALID,0.971094,
2012-06-28, 12:12:05,VALID,1004.34,VALID,0,VALID,69.461,VALID,816.475,VALID,28.948,VALID,183,VALID,1.48086,
2012-06-28, 12:13:05,VALID,1004.31,VALID,0,VALID,72.7032,VALID,847.041,VALID,28.6945,VALID,180,VALID,0.534766,
2012-06-28, 12:14:05,VALID,1004.29,VALID,0,VALID,68.988,VALID,913.959,VALID,28.8483,VALID,225,VALID,1.54375,
2012-06-28, 12:15:05,VALID,1004.26,VALID,0,VALID,72.5049,VALID,876.302,VALID,28.9068,VALID,237,VALID,0.605469,
2012-06-28, 12:16:05,VALID,1004.23,VALID,0,VALID,69.9187,VALID,907.113,VALID,29.0823,VALID,256,VALID,0.816406,
2012-06-28, 12:17:05,VALID,1004.23,VALID,0,VALID,65.6236,VALID,882.742,VALID,29.1386,VALID,275,VALID,0.655469,
2012-06-28, 12:18:05,VALID,1004.2,VALID,0,VALID,68.843,VALID,925.045,VALID,29.2556,VALID,44,VALID,0.577734,
2012-06-28, 12:19:05,VALID,1004.17,VALID,0,VALID,67.8589,VALID,945.829,VALID,29.2578,VALID,141,VALID,1.04883,
2012-06-28, 12:20:05,VALID,1004.14,VALID,0,VALID,67.5537,VALID,1015.85,VALID,29.2188,VALID,123,VALID,1.33281,
2012-06-28, 12:21:05,VALID,1004.09,VALID,0,VALID,68.4158,VALID,1113.09,VALID,29.1993,VALID,136,VALID,0.508203,
2012-06-28, 12:22:05,VALID,1004.09,VALID,0,VALID,73.7484,VALID,1120.42,VALID,29.3553,VALID,166,VALID,1.48945,
2012-06-28, 12:23:05,VALID,1004.08,VALID,0,VALID,69.6746,VALID,663.727,VALID,29.3163,VALID,197,VALID,1.67539,
2012-06-28, 12:24:05,VALID,1004.05,VALID,0,VALID,70.8342,VALID,469.002,VALID,29.2556,VALID,195,VALID,1.22305,
2012-06-28, 12:25:05,VALID,1004.06,VALID,0,VALID,72.5659,VALID,449.522,VALID,29.2773,VALID,258,VALID,1.49453,
2012-06-28, 12:26:05,VALID,1004.03,VALID,0,VALID,70.0865,VALID,446.913,VALID,29.2188,VALID,272,VALID,0.547266,
2012-06-28, 12:27:05,VALID,1004.02,VALID,0,VALID,71.4979,VALID,420.26,VALID,29.2188,VALID,279,VALID,0.794141,
2012-06-28, 12:28:05,VALID,1004,VALID,0,VALID,69.3847,VALID,411.049,VALID,29.2773,VALID,249,VALID,1.06719,
2012-06-28, 12:29:05,VALID,1004,VALID,0,VALID,70.0789,VALID,404.529,VALID,29.2795,VALID,271,VALID,0.577344,
2012-06-28, 12:30:05,VALID,1003.98,VALID,0,VALID,66.9739,VALID,424.906,VALID,29.2773,VALID,244,VALID,1.03477,
2012-06-28, 12:31:05,VALID,1003.98,VALID,0,VALID,66.4399,VALID,450.337,VALID,29.1993,VALID,213,VALID,0.416797,
2012-06-28, 12:32:05,VALID,1003.89,VALID,0,VALID,67.3554,VALID,584.663,VALID,29.1213,VALID,213,VALID,0.219531,
2012-06-28, 12:33:05,VALID,1003.9,VALID,0,VALID,65.8449,VALID,697.798,VALID,28.9458,VALID,141,VALID,1.27852,
2012-06-28, 12:34:05,VALID,1003.88,VALID,0,VALID,69.789,VALID,945.503,VALID,28.7704,VALID,146,VALID,0.351563,
2012-06-28, 12:35:05,VALID,1003.86,VALID,0,VALID,71.002,VALID,558.744,VALID,28.9675,VALID,153,VALID,0.142969,
2012-06-28, 12:36:05,VALID,1003.85,VALID,0,VALID,66.5696,VALID,460.77,VALID,29.0433,VALID,226,VALID,0.868359,
2012-06-28, 12:37:05,VALID,1003.8,VALID,0,VALID,67.2944,VALID,436.969,VALID,28.9285,VALID,148,VALID,1.28828,
2012-06-28, 12:38:05,VALID,1003.78,VALID,0,VALID,69.5754,VALID,435.502,VALID,28.7119,VALID,204,VALID,1.49297,
2012-06-28, 12:39:05,VALID,1003.81,VALID,0,VALID,74.5647,VALID,421.727,VALID,28.7119,VALID,197,VALID,1.31445,
2012-06-28, 12:40:05,VALID,1003.8,VALID,0,VALID,67.9504,VALID,408.115,VALID,28.6924,VALID,183,VALID,2.04883,
2012-06-28, 12:41:05,VALID,1003.77,VALID,0,VALID,71.4063,VALID,407.463,VALID,28.5148,VALID,159,VALID,0.675391,
2012-06-28, 12:42:05,VALID,1003.82,VALID,0,VALID,71.2232,VALID,417.081,VALID,28.361,VALID,189,VALID,2.13828,
2012-06-28, 12:43:05,VALID,1003.78,VALID,0,VALID,71.0325,VALID,439.904,VALID,28.2267,VALID,176,VALID,0.948438,
2012-06-28, 12:44:05,VALID,1003.76,VALID,0,VALID,70.1399,VALID,498.998,VALID,28.1682,VALID,155,VALID,1.52578,
2012-06-28, 12:45:05,VALID,1003.77,VALID,0,VALID,70.8952,VALID,581.159,VALID,28.0902,VALID,180,VALID,2.35781,
2012-06-28, 12:46:05,VALID,1003.76,VALID,0,VALID,69.5754,VALID,693.478,VALID,28.0296,VALID,204,VALID,1.3582,
2012-06-28, 12:47:05,VALID,1003.75,VALID,0,VALID,74.2137,VALID,534.698,VALID,28.1271,VALID,151,VALID,0.733594,
2012-06-28, 12:48:05,VALID,1003.7,VALID,0,VALID,72.9779,VALID,513.914,VALID,28.322,VALID,185,VALID,0.946484,
2012-06-28, 12:49:05,VALID,1003.66,VALID,0,VALID,70.0179,VALID,661.2,VALID,28.4779,VALID,215,VALID,0.562109,
2012-06-28, 12:50:05,VALID,1003.65,VALID,0,VALID,71.33,VALID,463.46,VALID,28.6729,VALID,219,VALID,1.32187,